User: anonymous   Login
Location: Caltech
(34.1382°N, 118.1253°W)
Time: 18:57:39
(UTC-07:00)
Language:

NOSS 3-2 (A) - Orbit

View from above orbital plane
View from above orbital plane
View from above satellite
View from above satellite

Ground track
Ground track

The orbit data is extracted from the following two-line orbital elements,

1 28095U 03054A   15143.91812397 0.00000000  00000-0  00000-0 0    03
2 28095  63.4280  79.5381 0240000 358.1381   1.8619 13.41314262    09
Epoch (UTC): 23 May 2015 22:02:05
Eccentricity: 0.0240000
inclination: 63.4280°
perigee height: 925 km
apogee height: 1284 km
right ascension of ascending node: 79.5381°
argument of perigee: 358.1381°
revolutions per day: 13.41314262
mean anomaly at epoch: 1.8619°
orbit number at epoch: 0

The dashed part of the orbit path shows where the satellite is in the earth's shadow,  

DLR